Total_Precipitation_Accumulation
0.02 0.01 0.02 0.10 0.12 0.02 0.00 0.00 0.02 0.05 0.12 0.03 0.01 0.03 0.06 0.05 0.07 0.35 0.16 0.09 0.04 0.14 0.34 0.47 0.90 0.97 1.19 1.22 1.09 0.78 0.77 0.95 1.21 1.31 1.32 0.91 1.02 0.91 1.28 2.10 1.85 2.25 2.51 2.52 2.08 1.61 1.61 1.33 0.91
0.07 0.04 0.06 0.20 0.07 0.00 0.00 0.01 0.00 0.01 0.07 0.05 0.05 0.05 0.15 0.06 0.01 0.14 0.15 0.08 0.05 0.13 0.30 0.42 0.75 0.90 0.95 1.02 0.87 0.85 0.84 0.89 1.17 1.45 1.34 1.16 0.96 0.73 0.96 1.38 1.58 2.50 2.68 1.92 1.64 1.33 1.25 1.14 0.90
0.10 0.13 0.25 0.21 0.06 0.00 0.07 0.04 0.05 0.02 0.02 0.15 0.23 0.09 0.30 0.20 0.07 0.10 0.12 0.11 0.10 0.20 0.45 0.58 0.84 0.93 0.95 0.90 0.94 0.89 0.94 1.14 1.28 1.45 1.46 1.52 1.23 1.09 1.09 0.82 0.72 1.36 1.20 1.02 0.77 0.62 0.58 0.65 0.65
0.13 0.32 0.35 0.13 0.05 0.02 0.14 0.05 0.14 0.05 0.01 0.04 0.22 0.24 0.43 0.38 0.10 0.11 0.12 0.14 0.16 0.29 0.61 0.88 1.09 1.09 1.00 0.94 0.96 0.71 0.70 0.83 1.06 1.28 1.48 1.40 1.26 1.55 1.37 0.83 0.53 0.39 0.46 0.64 0.62 0.32 0.27 0.34 0.39
0.22 0.41 0.25 0.16 0.07 0.05 0.10 0.02 0.04 0.10 0.02 0.06 0.20 0.40 0.53 0.63 0.29 0.41 0.32 0.33 0.21 0.28 0.49 0.82 1.36 1.45 1.19 1.04 1.00 0.79 0.86 0.78 0.76 0.86 1.07 1.16 1.26 1.71 1.48 0.89 0.49 0.36 0.51 0.63 0.36 0.28 0.29 0.45 0.31
0.57 0.44 0.25 0.14 0.03 0.01 0.08 0.02 0.01 0.07 0.02 0.04 0.13 0.47 0.73 1.02 1.00 1.00 0.80 0.70 0.62 0.54 0.68 0.78 1.24 1.32 1.42 1.47 1.38 1.03 1.01 0.93 0.82 0.85 0.96 1.16 1.08 1.24 1.14 0.79 0.57 0.35 0.44 0.55 0.35 0.24 0.29 0.47 0.43
0.68 0.51 0.18 0.09 0.01 0.00 0.03 0.03 0.03 0.01 0.02 0.07 0.05 0.34 0.68 0.96 1.73 1.40 1.19 1.07 0.92 1.24 1.48 1.38 1.06 1.11 1.09 1.33 1.59 1.57 1.27 0.93 0.76 0.76 0.82 0.77 0.62 0.62 0.79 0.59 0.47 0.36 0.38 0.46 0.35 0.27 0.32 0.46 0.47
0.57 0.80 0.31 0.06 0.01 0.02 0.03 0.04 0.02 0.03 0.03 0.03 0.08 0.17 0.38 0.59 1.98 2.18 2.11 1.80 1.36 1.65 1.77 1.66 1.27 0.95 0.80 0.81 1.08 1.10 1.15 1.02 0.98 0.73 0.59 0.43 0.30 0.30 0.52 0.29 0.21 0.34 0.36 0.38 0.42 0.35 0.38 0.43 0.46
0.95 1.15 0.67 0.14 0.04 0.03 0.03 0.02 0.02 0.02 0.04 0.09 0.16 0.19 0.19 0.58 1.98 3.02 3.24 3.02 2.31 2.05 2.06 1.88 1.68 1.17 0.90 0.70 0.80 1.13 1.11 0.95 0.84 0.59 0.52 0.61 0.32 0.22 0.33 0.19 0.10 0.17 0.25 0.26 0.34 0.37 0.42 0.37 0.21
1.46 1.35 0.40 0.09 0.07 0.04 0.07 0.03 0.01 0.03 0.04 0.57 0.63 0.34 0.56 0.67 1.39 3.20 4.47 4.33 2.97 2.12 2.01 1.85 1.69 1.42 1.03 0.94 1.00 0.92 1.04 1.02 0.66 0.43 0.37 0.35 0.40 0.37 0.35 0.22 0.18 0.24 0.28 0.21 0.29 0.30 0.30 0.17 0.10
1.12 1.11 0.29 0.29 0.26 0.26 0.16 0.07 0.02 0.06 0.06 0.19 1.70 0.96 0.84 0.84 1.04 1.95 3.40 4.61 4.02 2.43 1.78 1.58 1.58 1.69 1.22 0.92 0.86 0.96 1.42 1.27 0.93 0.60 0.61 0.66 0.68 0.71 0.74 0.49 0.35 0.24 0.20 0.15 0.20 0.16 0.16 0.11 0.12
0.61 0.63 0.43 0.47 0.47 0.48 0.19 0.13 0.09 0.15 0.09 0.14 0.52 1.32 1.43 1.29 1.15 1.34 1.98 2.76 4.32 3.77 2.12 1.68 1.56 1.38 1.20 0.81 0.55 0.65 1.03 1.37 1.22 0.99 0.91 0.93 0.98 0.84 0.80 0.65 0.39 0.26 0.19 0.17 0.19 0.15 0.13 0.09 0.10
0.49 0.58 0.57 0.71 0.62 0.47 0.33 0.21 0.13 0.11 0.12 0.14 0.55 0.83 1.32 1.84 1.52 1.14 1.51 1.74 3.37 4.82 4.08 2.42 2.05 2.10 1.18 0.92 0.47 0.31 0.36 0.75 0.91 1.37 1.47 1.43 1.13 0.98 0.98 0.99 1.02 0.64 0.46 0.32 0.22 0.16 0.12 0.09 0.09
0.30 0.56 0.73 0.99 0.79 0.86 0.47 0.25 0.19 0.07 0.12 0.30 0.76 1.66 0.92 1.30 1.65 1.80 1.72 1.73 2.06 3.20 3.95 4.27 2.77 2.01 1.83 1.37 0.70 0.36 0.34 0.47 0.85 0.91 1.12 1.42 1.63 1.61 1.50 1.18 1.11 1.46 1.60 1.23 0.88 0.53 0.28 0.16 0.12
0.38 0.78 1.05 1.10 1.24 1.23 0.89 0.72 0.22 0.05 0.13 0.51 1.02 1.72 2.31 1.30 1.02 2.10 2.54 2.20 1.71 2.34 3.33 3.70 3.38 2.49 1.80 1.73 1.28 0.60 0.44 0.38 0.60 0.72 0.84 1.08 1.19 1.28 1.69 1.77 1.34 1.21 1.75 2.16 2.05 1.60 1.19 0.73 0.45
0.78 1.09 1.07 0.93 1.30 1.92 1.56 0.81 0.19 0.10 0.18 0.39 0.78 1.19 1.55 2.76 1.72 1.26 1.73 3.04 2.91 2.34 2.38 2.92 2.67 2.82 2.76 2.31 2.49 1.94 1.09 0.56 0.48 0.77 0.86 0.86 0.99 1.16 1.56 1.56 1.67 1.91 1.81 2.29 2.14 1.49 1.25 1.04 0.96
0.76 0.71 0.80 0.76 0.77 1.88 1.76 1.02 0.40 0.22 0.16 0.22 0.45 0.88 1.55 2.10 3.61 2.79 1.62 1.85 3.43 3.11 2.54 2.94 3.32 2.82 3.18 3.17 3.14 3.19 2.23 1.36 0.78 0.74 0.82 1.07 0.94 1.02 1.13 1.60 2.46 2.72 2.48 1.85 1.86 2.23 1.93 1.23 0.72
0.84 0.40 0.44 0.70 0.62 1.10 1.62 0.99 0.72 0.41 0.26 0.16 0.35 0.62 0.99 1.84 1.78 3.20 3.09 2.28 2.44 3.54 3.20 3.09 3.10 3.72 3.56 3.83 3.34 3.36 2.81 2.24 1.36 0.91 0.76 0.98 1.47 1.33 1.43 1.18 1.43 2.42 2.91 2.91 2.51 1.85 1.96 1.96 1.80
0.21 0.33 0.26 0.54 0.72 0.54 0.90 0.90 0.74 0.51 0.53 0.23 0.30 0.38 0.63 1.16 1.90 2.08 2.64 3.36 2.67 2.90 3.30 3.00 3.13 3.44 3.36 3.58 3.08 2.58 2.19 2.27 2.16 1.58 1.40 1.04 1.15 1.64 1.70 1.68 1.62 1.89 1.85 1.85 2.28 3.00 2.74 2.18 2.08
0.31 0.33 0.28 0.42 0.71 0.63 0.58 0.67 0.50 0.51 0.38 0.32 0.27 0.49 0.53 0.79 1.72 2.92 2.37 2.18 2.95 2.71 2.80 3.03 3.09 3.53 3.40 2.76 2.78 2.46 2.06 1.79 2.17 2.31 1.76 1.80 1.66 1.65 1.89 1.68 1.58 1.68 1.86 1.69 1.38 1.49 2.13 2.41 2.76
0.38 0.32 0.23 0.42 0.47 0.43 0.49 0.60 0.45 0.38 0.29 0.19 0.17 0.41 0.66 0.63 0.93 2.63 3.28 2.86 2.48 2.54 2.56 2.77 2.76 2.74 2.26 2.24 2.06 2.04 2.21 2.20 1.73 1.43 1.47 1.28 1.55 1.77 1.85 2.03 2.05 2.01 1.90 1.87 1.72 1.54 1.70 1.63 1.94
0.39 0.18 0.30 0.58 0.69 0.58 0.46 0.71 0.49 0.31 0.30 0.22 0.21 0.23 0.54 0.92 1.00 1.47 3.06 3.64 3.43 2.84 2.24 2.67 3.06 2.62 2.24 2.08 2.07 1.64 1.53 1.68 1.62 1.80 1.60 1.80 1.72 1.63 1.89 2.00 2.10 2.27 2.40 2.01 1.97 2.04 2.24 2.21 1.58
0.50 0.19 0.27 0.46 0.81 1.23 0.47 0.84 0.64 0.44 0.43 0.48 0.42 0.37 0.48 0.69 1.09 1.41 1.97 2.34 3.87 4.17 2.89 2.20 2.64 2.96 2.69 2.27 2.27 2.11 2.16 1.74 1.66 1.97 2.08 1.95 2.08 2.22 2.32 2.39 2.50 2.36 2.41 2.66 2.36 2.18 2.18 2.74 2.62
0.44 0.48 0.50 0.78 1.22 1.90 0.57 0.82 1.11 1.02 1.07 0.94 0.46 0.45 0.60 0.69 0.83 1.03 1.28 1.95 2.56 3.47 4.52 3.67 2.75 2.44 2.34 2.13 2.21 2.11 1.66 1.50 1.32 1.42 1.73 1.70 1.75 1.95 2.29 2.45 2.37 2.37 2.06 1.93 2.05 2.08 1.90 1.77 2.03
0.78 1.11 1.96 2.02 2.26 1.13 0.60 0.91 1.37 1.15 0.93 0.89 0.66 0.74 0.89 0.89 0.99 0.85 0.91 1.35 2.48 2.24 2.73 3.60 4.21 3.69 3.10 2.57 2.51 2.23 1.93 1.82 1.73 1.66 1.65 1.74 1.49 1.26 1.30 1.65 1.77 1.59 1.61 1.60 1.65 1.46 1.36 1.49 1.48
1.05 1.10 1.68 1.73 1.10 0.91 0.64 1.66 2.32 1.65 1.31 1.14 0.92 1.10 1.44 1.63 1.64 1.27 1.10 1.28 1.77 2.17 2.08 2.05 2.75 3.75 4.21 4.22 4.02 3.06 2.98 2.44 2.22 1.88 1.81 1.65 1.55 1.60 1.39 1.22 1.54 1.66 1.42 1.26 1.24 1.11 0.88 0.91 1.02
0.98 1.07 0.98 1.68 0.90 0.92 0.77 1.40 2.07 1.92 1.78 1.19 1.58 1.68 1.74 2.02 2.27 1.79 1.82 2.05 1.61 1.62 1.99 1.98 1.68 1.96 2.26 2.48 2.74 2.81 3.10 2.98 2.69 2.16 1.70 1.54 1.47 1.32 1.25 1.10 1.02 1.01 1.00 1.16 1.20 1.13 0.97 0.88 0.86
0.69 0.60 1.18 2.03 1.78 1.13 0.72 0.89 2.59 2.56 2.03 1.82 1.92 1.88 1.86 2.05 1.99 1.87 2.01 1.68 1.68 1.51 1.47 1.58 1.48 1.33 1.40 1.63 1.61 1.76 2.09 2.09 2.06 1.81 1.75 1.55 1.45 1.43 1.36 1.11 0.95 0.78 0.68 0.79 0.90 0.91 0.93 0.99 0.91
0.88 1.09 0.83 1.19 1.35 1.24 0.82 1.92 2.81 2.39 1.95 1.58 1.54 1.50 1.54 1.54 1.45 1.42 1.63 1.64 1.41 1.44 1.20 1.24 1.33 1.62 1.18 1.67 1.59 1.30 1.49 2.03 1.58 1.73 1.44 1.50 1.55 1.37 1.16 1.18 1.20 0.98 0.81 0.82 0.94 0.91 0.95 1.09 0.97
0.56 0.62 0.66 1.59 1.20 0.95 1.02 1.80 1.88 1.76 1.51 1.17 0.93 0.64 0.48 0.41 0.47 0.55 0.72 0.95 1.02 0.87 0.82 0.99 1.40 1.38 1.26 1.58 1.69 1.46 1.61 2.25 2.21 1.83 1.81 1.60 1.65 1.58 1.18 1.00 0.97 1.02 1.00 0.98 1.06 1.26 1.19 1.05 1.12